Simultaneous Nadir Overpasses (SNOs) Predictions

Prediction of SNOs between FY3D and LANDSAT-8 Satellite Orbit:

Table of predicted SNOs for the next 14.0 days since TLE Epoch: 7/29/2023
Index Date (FY3D) Time (FY3D) Lat,Lon (FY3D) SZA (FY3D ) Date (LANDSAT-8) Time (LANDSAT-8) Lat,Lon (LANDSAT-8) SZA (LANDSAT-8 ) Distance(km) Time Diff (sec)
1 07/29/2023 07:26:52 73.89, 68.05 55.03 07/29/2023 07:27:58 73.77, 70.63 54.90 81.10 66
2 07/29/2023 08:17:22 -73.19,-122.99 125.68 07/29/2023 08:17:37 -73.18,-122.99 125.69 1.72 15
3 07/29/2023 09:08:07 73.08, 44.57 54.22 07/29/2023 09:07:04 73.09, 44.49 54.23 3.40 63
4 07/31/2023 22:53:57 -73.82, 16.49 124.41 07/31/2023 22:55:04 -73.72, 18.76 124.51 71.37 67
5 07/31/2023 23:44:31 73.16,-174.67 54.94 07/31/2023 23:44:40 73.17,-174.76 54.94 3.06 9
6 08/01/2023 00:35:14 -73.10, -7.23 125.12 08/01/2023 00:34:09 -73.10, -7.26 125.12 1.13 65
7 08/03/2023 14:21:01 73.55, -34.62 56.00 08/03/2023 14:22:12 73.43, -33.62 55.87 34.41 71
8 08/03/2023 15:11:38 -73.19, 133.52 124.36 08/03/2023 15:11:44 -73.21, 133.56 124.34 2.29 6
9 08/03/2023 16:02:24 73.13, -59.04 55.59 08/03/2023 16:01:11 73.12, -58.98 55.58 2.34 73
10 08/06/2023 05:48:05 -73.49, -86.20 123.36 08/06/2023 05:49:17 -73.35, -85.55 123.50 25.75 72
11 08/06/2023 06:38:46 73.18, 81.80 56.34 08/06/2023 06:38:45 73.21, 81.80 56.36 2.65 1
12 08/06/2023 07:29:28 -73.07,-110.63 123.77 08/06/2023 07:28:15 -73.09,-110.79 123.74 5.93 73
13 08/08/2023 21:15:10 73.29,-137.49 57.18 08/08/2023 21:16:20 73.27,-137.47 57.16 2.00 70
14 08/08/2023 22:05:53 -73.22, 29.98 122.88 08/08/2023 22:05:49 -73.21, 30.05 122.89 2.56 4
15 08/08/2023 22:56:31 72.76,-161.72 56.68 08/08/2023 22:55:21 72.85,-163.02 56.76 43.94 70
16 08/11/2023 12:42:16 -73.28, 170.79 122.06 08/11/2023 12:43:24 -73.26, 170.75 122.08 2.30 68
17 08/11/2023 13:33:02 73.23, -21.79 57.90 08/11/2023 13:32:50 73.21, -21.70 57.88 3.30 12



Historial Predications of SNOs between FY3D and LANDSAT-8
